Time,TemperatureF,DewpointF,PressureIn,WindDirection,WindDirectionDegrees,WindSpeedMPH,WindSpeedGustMPH,Humidity,HourlyPrecipIn,Conditions,Clouds,dailyrainin,SoftwareType,DateUTC
2013-09-24 00:01:00,4.5,-10.1,29.41,North,0,0.0,0.0,50,0.00,,---,0.00,VWS V14.01,2013-09-24 04:01:00,
2013-09-24 00:02:00,4.5,-10.1,29.41,North,0,0.0,0.0,50,0.00,,---,0.00,VWS V14.01,2013-09-24 04:02:00,
2013-09-24 00:05:00,3.4,-11.1,29.41,North,0,0.0,0.0,50,0.00,,---,0.00,VWS V14.01,2013-09-24 04:05:00,
2013-09-24 00:09:00,3.4,-11.1,29.41,North,0,0.0,0.0,50,0.00,,---,0.00,VWS V14.01,2013-09-24 04:09:00,
2013-09-24 00:14:00,3.4,-11.1,29.41,North,0,0.0,0.0,50,0.00,,---,0.00,VWS V14.01,2013-09-24 04:14:00,
2013-09-24 00:19:00,2.1,-12.2,29.41,North,0,0.0,0.0,50,0.00,,---,0.00,VWS V14.01,2013-09-24 04:19:00,
2013-09-24 00:24:00,2.1,-12.2,29.41,North,0,0.0,0.0,50,0.00,,---,0.00,VWS V14.01,2013-09-24 04:24:00,
2013-09-24 00:29:00,1.6,-12.8,29.41,North,0,0.0,0.0,50,0.00,,---,0.00,VWS V14.01,2013-09-24 04:29:00,
2013-09-24 00:34:00,1.2,-13.1,29.41,North,0,0.0,0.0,50,0.00,,---,0.00,VWS V14.01,2013-09-24 04:34:00,
2013-09-24 00:39:00,1.0,-13.2,29.41,North,0,0.0,0.0,50,0.00,,---,0.00,VWS V14.01,2013-09-24 04:39:00,
2013-09-24 00:44:00,0.9,-13.4,29.41,North,0,0.0,0.0,50,0.00,,---,0.00,VWS V14.01,2013-09-24 04:44:00,
2013-09-24 00:49:00,1.2,-13.1,29.41,North,0,0.0,0.0,50,0.00,,---,0.00,VWS V14.01,2013-09-24 04:49:00,
2013-09-24 00:54:00,1.6,-12.8,29.41,North,0,0.0,0.0,50,0.00,,---,0.00,VWS V14.01,2013-09-24 04:54:00,
2013-09-24 00:59:00,1.8,-12.6,29.41,North,0,0.0,0.0,50,0.00,,---,0.00,VWS V14.01,2013-09-24 04:59:00,
2013-09-24 01:04:00,1.8,-12.6,29.41,North,0,0.0,0.0,50,0.00,,---,0.00,VWS V14.01,2013-09-24 05:04:00,
2013-09-24 01:09:00,1.8,-12.6,29.41,North,0,0.0,0.0,50,0.00,,---,0.00,VWS V14.01,2013-09-24 05:09:00,
2013-09-24 01:14:00,1.8,-12.6,29.41,North,0,0.0,0.0,50,0.00,,---,0.00,VWS V14.01,2013-09-24 05:14:00,
2013-09-24 01:19:00,1.8,-12.6,29.41,North,0,0.0,0.0,50,0.00,,---,0.00,VWS V14.01,2013-09-24 05:19:00,
2013-09-24 01:24:00,1.8,-12.6,29.41,North,0,0.0,0.0,50,0.00,,---,0.00,VWS V14.01,2013-09-24 05:24:00,
2013-09-24 01:29:00,1.8,-12.6,29.41,North,0,0.0,0.0,50,0.00,,---,0.00,VWS V14.01,2013-09-24 05:29:00,
2013-09-24 01:34:00,1.8,-12.6,29.41,North,0,0.0,0.0,50,0.00,,---,0.00,VWS V14.01,2013-09-24 05:34:00,
2013-09-24 01:39:00,6.4,-8.2,29.41,North,0,0.0,0.0,50,0.00,,---,0.00,VWS V14.01,2013-09-24 05:39:00,
2013-09-24 01:44:00,6.4,-8.2,29.41,North,0,0.0,0.0,50,0.00,,---,0.00,VWS V14.01,2013-09-24 05:44:00,
2013-09-24 01:49:00,7.3,-7.4,29.41,North,0,0.0,0.0,50,0.00,,---,0.00,VWS V14.01,2013-09-24 05:49:00,
2013-09-24 01:54:00,7.7,-7.1,29.41,North,0,0.0,0.0,50,0.00,,---,0.00,VWS V14.01,2013-09-24 05:54:00,
2013-09-24 01:59:00,8.1,-6.7,29.41,North,0,0.0,0.0,50,0.00,,---,0.00,VWS V14.01,2013-09-24 05:59:00,
2013-09-24 02:05:00,8.4,-6.4,29.41,North,0,0.0,0.0,50,0.00,,---,0.00,VWS V14.01,2013-09-24 06:05:00,
2013-09-24 02:10:00,9.0,-5.9,29.41,North,0,0.0,0.0,50,0.00,,---,0.00,VWS V14.01,2013-09-24 06:10:00,
2013-09-24 02:15:00,9.1,-5.7,29.41,North,0,0.0,0.0,50,0.00,,---,0.00,VWS V14.01,2013-09-24 06:15:00,
2013-09-24 02:20:00,9.5,-5.4,29.41,North,0,0.0,0.0,50,0.00,,---,0.00,VWS V14.01,2013-09-24 06:20:00,
2013-09-24 02:25:00,9.9,-5.1,29.41,North,0,0.0,0.0,50,0.00,,---,0.00,VWS V14.01,2013-09-24 06:25:00,
2013-09-24 02:30:00,10.2,-4.7,29.41,North,0,0.0,0.0,50,0.00,,---,0.00,VWS V14.01,2013-09-24 06:30:00,
2013-09-24 02:35:00,10.4,-4.6,29.41,North,0,0.0,0.0,50,0.00,,---,0.00,VWS V14.01,2013-09-24 06:35:00,
2013-09-24 02:40:00,10.8,-4.2,29.41,North,0,0.0,0.0,50,0.00,,---,0.00,VWS V14.01,2013-09-24 06:40:00,
2013-09-24 02:45:00,11.1,-3.9,29.41,North,0,0.0,0.0,50,0.00,,---,0.00,VWS V14.01,2013-09-24 06:45:00,
2013-09-24 02:50:00,11.3,-3.7,29.41,North,0,0.0,0.0,50,0.00,,---,0.00,VWS V14.01,2013-09-24 06:50:00,
2013-09-24 02:55:00,11.7,-3.4,29.41,North,0,0.0,0.0,50,0.00,,---,0.00,VWS V14.01,2013-09-24 06:55:00,
2013-09-24 03:00:00,11.7,-3.4,29.41,North,0,0.0,0.0,50,0.00,,---,0.00,VWS V14.01,2013-09-24 07:00:00,
2013-09-24 03:05:00,10.9,-4.0,29.41,North,0,0.0,0.0,50,0.00,,---,0.00,VWS V14.01,2013-09-24 07:05:00,
2013-09-24 03:10:00,10.0,-4.9,29.41,North,0,0.0,0.0,50,0.00,,---,0.00,VWS V14.01,2013-09-24 07:10:00,
2013-09-24 03:15:00,9.1,-5.7,29.41,North,0,0.0,0.0,50,0.00,,---,0.00,VWS V14.01,2013-09-24 07:15:00,
2013-09-24 03:20:00,8.1,-6.7,29.41,North,0,0.0,0.0,50,0.00,,---,0.00,VWS V14.01,2013-09-24 07:20:00,
2013-09-24 03:25:00,7.3,-7.4,29.41,North,0,0.0,0.0,50,0.00,,---,0.00,VWS V14.01,2013-09-24 07:25:00,
2013-09-24 03:30:00,6.8,-7.9,29.41,North,0,0.0,0.0,50,0.00,,---,0.00,VWS V14.01,2013-09-24 07:30:00,
2013-09-24 03:35:00,6.3,-8.4,29.41,North,0,0.0,0.0,50,0.00,,---,0.00,VWS V14.01,2013-09-24 07:35:00,
2013-09-24 03:40:00,5.5,-9.1,29.41,North,0,0.0,0.0,50,0.00,,---,0.00,VWS V14.01,2013-09-24 07:40:00,
2013-09-24 03:45:00,5.0,-9.6,29.41,North,0,0.0,0.0,50,0.00,,---,0.00,VWS V14.01,2013-09-24 07:45:00,
2013-09-24 03:50:00,4.3,-10.2,29.41,North,0,0.0,0.0,50,0.00,,---,0.00,VWS V14.01,2013-09-24 07:50:00,
2013-09-24 03:55:00,3.7,-10.7,29.41,North,0,0.0,0.0,50,0.00,,---,0.00,VWS V14.01,2013-09-24 07:55:00,
2013-09-24 04:00:00,3.2,-11.2,29.41,North,0,0.0,0.0,50,0.00,,---,0.00,VWS V14.01,2013-09-24 08:00:00,
2013-09-24 04:06:00,2.8,-11.6,29.41,North,0,0.0,0.0,50,0.00,,---,0.00,VWS V14.01,2013-09-24 08:06:00,
2013-09-24 04:11:00,2.5,-11.9,29.41,North,0,0.0,0.0,50,0.00,,---,0.00,VWS V14.01,2013-09-24 08:11:00,
2013-09-24 04:16:00,2.5,-11.9,29.41,North,0,0.0,0.0,50,0.00,,---,0.00,VWS V14.01,2013-09-24 08:16:00,
2013-09-24 04:21:00,1.8,-12.6,29.41,North,0,0.0,0.0,50,0.00,,---,0.00,VWS V14.01,2013-09-24 08:21:00,
2013-09-24 04:26:00,1.6,-12.8,29.41,North,0,0.0,0.0,50,0.00,,---,0.00,VWS V14.01,2013-09-24 08:26:00,
2013-09-24 04:31:00,1.2,-13.1,29.41,North,0,0.0,0.0,50,0.00,,---,0.00,VWS V14.01,2013-09-24 08:31:00,
2013-09-24 04:36:00,0.9,-13.4,29.41,North,0,0.0,0.0,50,0.00,,---,0.00,VWS V14.01,2013-09-24 08:36:00,
2013-09-24 04:41:00,0.7,-13.6,29.41,North,0,0.0,0.0,50,0.00,,---,0.00,VWS V14.01,2013-09-24 08:41:00,
2013-09-24 04:46:00,0.5,-13.8,29.41,North,0,0.0,0.0,50,0.00,,---,0.00,VWS V14.01,2013-09-24 08:46:00,
2013-09-24 04:51:00,0.3,-13.9,29.41,North,0,0.0,0.0,50,0.00,,---,0.00,VWS V14.01,2013-09-24 08:51:00,
2013-09-24 04:56:00,0.3,-13.9,29.41,North,0,0.0,0.0,50,0.00,,---,0.00,VWS V14.01,2013-09-24 08:56:00,
2013-09-24 05:02:00,0.3,-13.9,29.41,North,0,0.0,0.0,50,0.00,,---,0.00,VWS V14.01,2013-09-24 09:02:00,
2013-09-24 05:07:00,0.7,-13.6,29.41,North,0,0.0,0.0,50,0.00,,---,0.00,VWS V14.01,2013-09-24 09:07:00,
2013-09-24 05:12:00,1.2,-13.1,29.41,North,0,0.0,0.0,50,0.00,,---,0.00,VWS V14.01,2013-09-24 09:12:00,
2013-09-24 05:17:00,1.6,-12.8,29.41,North,0,0.0,0.0,50,0.00,,---,0.00,VWS V14.01,2013-09-24 09:17:00,
2013-09-24 05:22:00,2.5,-11.9,29.41,North,0,0.0,0.0,50,0.00,,---,0.00,VWS V14.01,2013-09-24 09:22:00,
2013-09-24 05:27:00,2.8,-11.6,29.41,North,0,0.0,0.0,50,0.00,,---,0.00,VWS V14.01,2013-09-24 09:27:00,
2013-09-24 05:32:00,3.6,-10.9,29.41,North,0,0.0,0.0,50,0.00,,---,0.00,VWS V14.01,2013-09-24 09:32:00,
2013-09-24 05:37:00,4.1,-10.4,29.41,North,0,0.0,0.0,50,0.00,,---,0.00,VWS V14.01,2013-09-24 09:37:00,
2013-09-24 05:42:00,4.8,-9.7,29.41,North,0,0.0,0.0,50,0.00,,---,0.00,VWS V14.01,2013-09-24 09:42:00,
2013-09-24 05:47:00,5.0,-9.6,29.41,North,0,0.0,0.0,50,0.00,,---,0.00,VWS V14.01,2013-09-24 09:47:00,
2013-09-24 05:52:00,5.9,-8.7,29.41,North,0,0.0,0.0,50,0.00,,---,0.00,VWS V14.01,2013-09-24 09:52:00,
2013-09-24 05:57:00,6.3,-8.4,29.41,North,0,0.0,0.0,50,0.00,,---,0.00,VWS V14.01,2013-09-24 09:57:00,
2013-09-24 06:02:00,6.8,-7.9,29.41,North,0,0.0,0.0,50,0.00,,---,0.00,VWS V14.01,2013-09-24 10:02:00,
2013-09-24 06:08:00,7.0,-7.7,29.41,North,0,0.0,0.0,50,0.00,,---,0.00,VWS V14.01,2013-09-24 10:08:00,
2013-09-24 06:13:00,7.0,-7.7,29.41,North,0,0.0,0.0,50,0.00,,---,0.00,VWS V14.01,2013-09-24 10:13:00,
2013-09-24 06:18:00,7.9,-6.9,29.41,North,0,0.0,0.0,50,0.00,,---,0.00,VWS V14.01,2013-09-24 10:18:00,
2013-09-24 06:23:00,8.1,-6.7,29.41,North,0,0.0,0.0,50,0.00,,---,0.00,VWS V14.01,2013-09-24 10:23:00,
2013-09-24 06:28:00,8.1,-6.7,29.41,North,0,0.0,0.0,50,0.00,,---,0.00,VWS V14.01,2013-09-24 10:28:00,
2013-09-24 06:33:00,8.1,-6.7,29.41,North,0,0.0,0.0,50,0.00,,---,0.00,VWS V14.01,2013-09-24 10:33:00,
2013-09-24 06:38:00,8.1,-6.7,29.41,North,0,0.0,0.0,50,0.00,,---,0.00,VWS V14.01,2013-09-24 10:38:00,
2013-09-24 06:43:00,8.1,-6.7,29.41,North,0,0.0,0.0,50,0.00,,---,0.00,VWS V14.01,2013-09-24 10:43:00,
2013-09-24 06:48:00,9.7,-5.2,29.41,North,0,0.0,0.0,50,0.00,,---,0.00,VWS V14.01,2013-09-24 10:48:00,
2013-09-24 06:53:00,9.7,-5.2,29.41,North,0,0.0,0.0,50,0.00,,---,0.00,VWS V14.01,2013-09-24 10:53:00,
2013-09-24 06:58:00,9.7,-5.2,29.41,North,0,0.0,0.0,50,0.00,,---,0.00,VWS V14.01,2013-09-24 10:58:00,
2013-09-24 07:03:00,9.7,-5.2,29.41,North,0,0.0,0.0,50,0.00,,---,0.00,VWS V14.01,2013-09-24 11:03:00,
2013-09-24 07:08:00,9.7,-5.2,29.41,North,0,0.0,0.0,50,0.00,,---,0.00,VWS V14.01,2013-09-24 11:08:00,
2013-09-24 07:13:00,9.7,-5.2,29.41,North,0,0.0,0.0,50,0.00,,---,0.00,VWS V14.01,2013-09-24 11:13:00,
2013-09-24 07:18:00,9.7,-5.2,29.41,North,0,0.0,0.0,50,0.00,,---,0.00,VWS V14.01,2013-09-24 11:18:00,
2013-09-24 07:24:00,9.7,-5.2,29.41,North,0,0.0,0.0,50,0.00,,---,0.00,VWS V14.01,2013-09-24 11:24:00,
2013-09-24 07:29:00,9.7,-5.2,29.41,North,0,0.0,0.0,50,0.00,,---,0.00,VWS V14.01,2013-09-24 11:29:00,
2013-09-24 07:34:00,9.7,-5.2,29.41,North,0,0.0,0.0,50,0.00,,---,0.00,VWS V14.01,2013-09-24 11:34:00,
2013-09-24 07:39:00,9.7,-5.2,29.41,North,0,0.0,0.0,50,0.00,,---,0.00,VWS V14.01,2013-09-24 11:39:00,
2013-09-24 07:44:00,9.7,-5.2,29.41,North,0,0.0,0.0,50,0.00,,---,0.00,VWS V14.01,2013-09-24 11:44:00,
2013-09-24 07:49:00,9.7,-5.2,29.41,North,0,0.0,0.0,50,0.00,,---,0.00,VWS V14.01,2013-09-24 11:49:00,
2013-09-24 07:54:00,9.7,-5.2,29.38,North,0,0.0,0.0,50,0.00,,---,0.00,VWS V14.01,2013-09-24 11:54:00,
2013-09-24 07:59:00,9.7,-5.2,29.38,North,0,0.0,0.0,50,0.00,,---,0.00,VWS V14.01,2013-09-24 11:59:00,
2013-09-24 08:04:00,9.7,-5.2,29.38,North,0,0.0,0.0,50,0.00,,---,0.00,VWS V14.01,2013-09-24 12:04:00,
2013-09-24 08:09:00,9.7,-5.2,29.38,North,0,0.0,0.0,50,0.00,,---,0.00,VWS V14.01,2013-09-24 12:09:00,
2013-09-24 08:14:00,9.7,-5.2,29.38,North,0,0.0,0.0,50,0.00,,---,0.00,VWS V14.01,2013-09-24 12:14:00,
2013-09-24 08:19:00,3.6,-10.9,29.38,North,0,0.0,0.0,50,0.00,,---,0.00,VWS V14.01,2013-09-24 12:19:00,
2013-09-24 08:24:00,2.8,-11.6,29.38,North,0,0.0,0.0,50,0.00,,---,0.00,VWS V14.01,2013-09-24 12:24:00,
2013-09-24 08:29:00,2.8,-11.6,29.38,North,0,0.0,0.0,50,0.00,,---,0.00,VWS V14.01,2013-09-24 12:29:00,
2013-09-24 08:34:00,2.8,-11.6,29.38,North,0,0.0,0.0,50,0.00,,---,0.00,VWS V14.01,2013-09-24 12:34:00,
2013-09-24 08:39:00,2.8,-11.6,29.38,North,0,0.0,0.0,50,0.00,,---,0.00,VWS V14.01,2013-09-24 12:39:00,
2013-09-24 08:44:00,2.8,-11.6,29.38,North,0,0.0,0.0,50,0.00,,---,0.00,VWS V14.01,2013-09-24 12:44:00,
2013-09-24 08:49:00,1.0,-13.2,29.38,North,0,0.0,0.0,50,0.00,,---,0.00,VWS V14.01,2013-09-24 12:49:00,
2013-09-24 08:54:00,0.7,-13.6,29.38,North,0,0.0,0.0,50,0.00,,---,0.00,VWS V14.01,2013-09-24 12:54:00,
2013-09-24 08:59:00,0.5,-13.8,29.38,North,0,0.0,0.0,50,0.00,,---,0.00,VWS V14.01,2013-09-24 12:59:00,
2013-09-24 09:04:00,0.3,-13.9,29.38,North,0,0.0,0.0,50,0.00,,---,0.00,VWS V14.01,2013-09-24 13:04:00,
2013-09-24 09:09:00,0.1,-14.1,29.38,North,0,0.0,0.0,50,0.00,,---,0.00,VWS V14.01,2013-09-24 13:09:00,
2013-09-24 09:14:00,0.0,-14.2,29.38,North,0,0.0,0.0,50,0.00,,---,0.00,VWS V14.01,2013-09-24 13:14:00,
2013-09-24 09:19:00,0.0,-14.2,29.38,North,0,0.0,0.0,50,0.00,,---,0.00,VWS V14.01,2013-09-24 13:19:00,
2013-09-24 09:24:00,0.0,-14.2,29.38,North,0,0.0,0.0,50,0.00,,---,0.00,VWS V14.01,2013-09-24 13:24:00,
2013-09-24 09:29:00,0.3,-13.9,29.38,North,0,0.0,0.0,50,0.00,,---,0.00,VWS V14.01,2013-09-24 13:29:00,
2013-09-24 09:34:00,0.9,-13.4,29.38,North,0,0.0,0.0,50,0.00,,---,0.00,VWS V14.01,2013-09-24 13:34:00,
2013-09-24 09:39:00,1.6,-12.8,29.38,North,0,0.0,0.0,50,0.00,,---,0.00,VWS V14.01,2013-09-24 13:39:00,
2013-09-24 09:44:00,1.8,-12.6,29.38,North,0,0.0,0.0,50,0.00,,---,0.00,VWS V14.01,2013-09-24 13:44:00,
2013-09-24 09:49:00,2.3,-12.1,29.38,North,0,0.0,0.0,50,0.00,,---,0.00,VWS V14.01,2013-09-24 13:49:00,
2013-09-24 09:54:00,3.0,-11.4,29.35,North,0,0.0,0.0,50,0.00,,---,0.00,VWS V14.01,2013-09-24 13:54:00,
2013-09-24 09:59:00,3.7,-10.7,29.35,North,0,0.0,0.0,50,0.00,,---,0.00,VWS V14.01,2013-09-24 13:59:00,
2013-09-24 10:04:00,4.1,-10.4,29.35,North,0,0.0,0.0,50,0.00,,---,0.00,VWS V14.01,2013-09-24 14:04:00,
2013-09-24 10:09:00,4.6,-9.9,29.35,North,0,0.0,0.0,50,0.00,,---,0.00,VWS V14.01,2013-09-24 14:09:00,
2013-09-24 10:14:00,5.0,-9.6,29.35,North,0,0.0,0.0,50,0.00,,---,0.00,VWS V14.01,2013-09-24 14:14:00,
2013-09-24 10:19:00,5.0,-9.6,29.35,North,0,0.0,0.0,50,0.00,,---,0.00,VWS V14.01,2013-09-24 14:19:00,
2013-09-24 10:24:00,5.9,-8.7,29.35,North,0,0.0,0.0,50,0.00,,---,0.00,VWS V14.01,2013-09-24 14:24:00,
2013-09-24 10:29:00,5.9,-8.7,29.35,North,0,0.0,0.0,50,0.00,,---,0.00,VWS V14.01,2013-09-24 14:29:00,
2013-09-24 10:34:00,5.9,-8.7,29.35,North,0,0.0,0.0,50,0.00,,---,0.00,VWS V14.01,2013-09-24 14:34:00,
2013-09-24 10:39:00,5.9,-8.7,29.35,North,0,0.0,0.0,50,0.00,,---,0.00,VWS V14.01,2013-09-24 14:39:00,
2013-09-24 10:44:00,5.9,-8.7,29.35,North,0,0.0,0.0,50,0.00,,---,0.00,VWS V14.01,2013-09-24 14:44:00,
2013-09-24 10:49:00,5.9,-8.7,29.35,North,0,0.0,0.0,50,0.00,,---,0.00,VWS V14.01,2013-09-24 14:49:00,
2013-09-24 10:55:00,5.9,-8.7,29.35,North,0,0.0,0.0,50,0.00,,---,0.00,VWS V14.01,2013-09-24 14:55:00,
2013-09-24 11:00:00,5.9,-8.7,29.35,North,0,0.0,0.0,50,0.00,,---,0.00,VWS V14.01,2013-09-24 15:00:00,
2013-09-24 11:05:00,5.9,-8.7,29.35,North,0,0.0,0.0,50,0.00,,---,0.00,VWS V14.01,2013-09-24 15:05:00,
2013-09-24 11:10:00,5.9,-8.7,29.35,North,0,0.0,0.0,50,0.00,,---,0.00,VWS V14.01,2013-09-24 15:10:00,
2013-09-24 11:15:00,5.9,-8.7,29.35,North,0,0.0,0.0,50,0.00,,---,0.00,VWS V14.01,2013-09-24 15:15:00,
2013-09-24 11:20:00,5.9,-8.7,29.35,North,0,0.0,0.0,50,0.00,,---,0.00,VWS V14.01,2013-09-24 15:20:00,
2013-09-24 11:25:00,5.9,-8.7,29.35,North,0,0.0,0.0,50,0.00,,---,0.00,VWS V14.01,2013-09-24 15:25:00,
2013-09-24 11:30:00,5.9,-8.7,29.35,North,0,0.0,0.0,50,0.00,,---,0.00,VWS V14.01,2013-09-24 15:30:00,
2013-09-24 11:35:00,5.9,-8.7,29.35,North,0,0.0,0.0,50,0.00,,---,0.00,VWS V14.01,2013-09-24 15:35:00,
2013-09-24 11:41:00,5.9,-8.7,29.32,North,0,0.0,0.0,50,0.00,,---,0.00,VWS V14.01,2013-09-24 15:41:00,
2013-09-24 11:46:00,11.5,-3.5,29.32,North,0,0.0,0.0,50,0.00,,---,0.00,VWS V14.01,2013-09-24 15:46:00,
2013-09-24 11:51:00,11.3,-3.7,29.32,North,0,0.0,0.0,50,0.00,,---,0.00,VWS V14.01,2013-09-24 15:51:00,
2013-09-24 11:56:00,10.2,-4.7,29.32,North,0,0.0,0.0,50,0.00,,---,0.00,VWS V14.01,2013-09-24 15:56:00,
2013-09-24 12:02:00,9.1,-5.7,29.32,North,0,0.0,0.0,50,0.00,,---,0.00,VWS V14.01,2013-09-24 16:02:00,
2013-09-24 12:08:00,8.4,-6.4,29.32,North,0,0.0,0.0,50,0.00,,---,0.00,VWS V14.01,2013-09-24 16:08:00,
2013-09-24 12:13:00,7.7,-7.1,29.32,North,0,0.0,0.0,50,0.00,,---,0.00,VWS V14.01,2013-09-24 16:13:00,
2013-09-24 12:18:00,6.8,-7.9,29.32,North,0,0.0,0.0,50,0.00,,---,0.00,VWS V14.01,2013-09-24 16:18:00,
2013-09-24 12:23:00,6.4,-8.2,29.32,North,0,0.0,0.0,50,0.00,,---,0.00,VWS V14.01,2013-09-24 16:23:00,
2013-09-24 12:28:00,5.5,-9.1,29.32,North,0,0.0,0.0,50,0.00,,---,0.00,VWS V14.01,2013-09-24 16:28:00,
2013-09-24 12:33:00,5.4,-9.2,29.32,North,0,0.0,0.0,50,0.00,,---,0.00,VWS V14.01,2013-09-24 16:33:00,
2013-09-24 12:38:00,4.5,-10.1,29.32,North,0,0.0,0.0,50,0.00,,---,0.00,VWS V14.01,2013-09-24 16:38:00,
2013-09-24 12:43:00,4.1,-10.4,29.32,North,0,0.0,0.0,50,0.00,,---,0.00,VWS V14.01,2013-09-24 16:43:00,
2013-09-24 12:48:00,3.6,-10.9,29.32,North,0,0.0,0.0,50,0.00,,---,0.00,VWS V14.01,2013-09-24 16:48:00,
2013-09-24 12:53:00,3.2,-11.2,29.32,North,0,0.0,0.0,50,0.00,,---,0.00,VWS V14.01,2013-09-24 16:53:00,
2013-09-24 12:58:00,2.8,-11.6,29.32,North,0,0.0,0.0,50,0.00,,---,0.00,VWS V14.01,2013-09-24 16:58:00,
2013-09-24 13:03:00,2.7,-11.7,29.32,North,0,0.0,0.0,50,0.00,,---,0.00,VWS V14.01,2013-09-24 17:03:00,
2013-09-24 13:08:00,2.1,-12.2,29.32,North,0,0.0,0.0,50,0.00,,---,0.00,VWS V14.01,2013-09-24 17:08:00,
2013-09-24 13:13:00,1.9,-12.4,29.32,North,0,0.0,0.0,50,0.00,,---,0.00,VWS V14.01,2013-09-24 17:13:00,
2013-09-24 13:18:00,1.9,-12.4,29.32,North,0,0.0,0.0,50,0.00,,---,0.00,VWS V14.01,2013-09-24 17:18:00,
2013-09-24 13:23:00,1.9,-12.4,29.32,North,0,0.0,0.0,50,0.00,,---,0.00,VWS V14.01,2013-09-24 17:23:00,
2013-09-24 13:28:00,1.6,-12.8,29.29,North,0,0.0,0.0,50,0.00,,---,0.00,VWS V14.01,2013-09-24 17:28:00,
2013-09-24 13:34:00,1.6,-12.8,29.29,North,0,0.0,0.0,50,0.00,,---,0.00,VWS V14.01,2013-09-24 17:34:00,
2013-09-24 13:39:00,2.1,-12.2,29.29,North,0,0.0,0.0,50,0.00,,---,0.00,VWS V14.01,2013-09-24 17:39:00,
2013-09-24 13:44:00,2.5,-11.9,29.29,North,0,0.0,0.0,50,0.00,,---,0.00,VWS V14.01,2013-09-24 17:44:00,
2013-09-24 13:49:00,3.2,-11.2,29.29,North,0,0.0,0.0,50,0.00,,---,0.00,VWS V14.01,2013-09-24 17:49:00,
2013-09-24 13:54:00,4.1,-10.4,29.29,North,0,0.0,0.0,50,0.00,,---,0.00,VWS V14.01,2013-09-24 17:54:00,
2013-09-24 13:59:00,4.5,-10.1,29.29,North,0,0.0,0.0,50,0.00,,---,0.00,VWS V14.01,2013-09-24 17:59:00,
2013-09-24 14:04:00,5.0,-9.6,29.29,North,0,0.0,0.0,50,0.00,,---,0.00,VWS V14.01,2013-09-24 18:04:00,
2013-09-24 14:09:00,5.5,-9.1,29.29,North,0,0.0,0.0,50,0.00,,---,0.00,VWS V14.01,2013-09-24 18:09:00,
2013-09-24 14:15:00,6.4,-8.2,29.29,North,0,0.0,0.0,50,0.00,,---,0.00,VWS V14.01,2013-09-24 18:15:00,
2013-09-24 14:20:00,7.0,-7.7,29.29,North,0,0.0,0.0,50,0.00,,---,0.00,VWS V14.01,2013-09-24 18:20:00,
2013-09-24 14:25:00,7.2,-7.6,29.29,North,0,0.0,0.0,50,0.00,,---,0.00,VWS V14.01,2013-09-24 18:25:00,
2013-09-24 14:30:00,7.9,-6.9,29.29,North,0,0.0,0.0,50,0.00,,---,0.00,VWS V14.01,2013-09-24 18:30:00,
2013-09-24 14:35:00,8.4,-6.4,29.29,North,0,0.0,0.0,50,0.00,,---,0.00,VWS V14.01,2013-09-24 18:35:00,
2013-09-24 14:40:00,8.8,-6.1,29.26,North,0,0.0,0.0,50,0.00,,---,0.00,VWS V14.01,2013-09-24 18:40:00,
2013-09-24 14:45:00,9.1,-5.7,29.26,North,0,0.0,0.0,50,0.00,,---,0.00,VWS V14.01,2013-09-24 18:45:00,
2013-09-24 14:50:00,9.7,-5.2,29.26,North,0,0.0,0.0,50,0.00,,---,0.00,VWS V14.01,2013-09-24 18:50:00,
2013-09-24 14:55:00,10.0,-4.9,29.26,North,0,0.0,0.0,50,0.00,,---,0.00,VWS V14.01,2013-09-24 18:55:00,
2013-09-24 15:00:00,10.4,-4.6,29.26,North,0,0.0,0.0,50,0.00,,---,0.00,VWS V14.01,2013-09-24 19:00:00,
2013-09-24 15:05:00,10.8,-4.2,29.26,North,0,0.0,0.0,50,0.00,,---,0.00,VWS V14.01,2013-09-24 19:05:00,
2013-09-24 15:10:00,11.1,-3.9,29.26,North,0,0.0,0.0,50,0.00,,---,0.00,VWS V14.01,2013-09-24 19:10:00,
2013-09-24 15:15:00,11.7,-3.4,29.26,North,0,0.0,0.0,50,0.00,,---,0.00,VWS V14.01,2013-09-24 19:15:00,
2013-09-24 15:20:00,11.8,-3.2,29.26,North,0,0.0,0.0,50,0.00,,---,0.00,VWS V14.01,2013-09-24 19:20:00,
2013-09-24 15:25:00,11.8,-3.2,29.26,North,0,0.0,0.0,50,0.00,,---,0.00,VWS V14.01,2013-09-24 19:25:00,
2013-09-24 15:30:00,11.3,-3.7,29.26,North,0,0.0,0.0,50,0.00,,---,0.00,VWS V14.01,2013-09-24 19:30:00,
2013-09-24 15:35:00,10.4,-4.6,29.26,North,0,0.0,0.0,50,0.00,,---,0.00,VWS V14.01,2013-09-24 19:35:00,
2013-09-24 15:40:00,9.7,-5.2,29.26,North,0,0.0,0.0,50,0.00,,---,0.00,VWS V14.01,2013-09-24 19:40:00,
2013-09-24 15:45:00,8.8,-6.1,29.26,North,0,0.0,0.0,50,0.00,,---,0.00,VWS V14.01,2013-09-24 19:45:00,
2013-09-24 15:50:00,8.6,-6.2,29.26,North,0,0.0,0.0,50,0.00,,---,0.00,VWS V14.01,2013-09-24 19:50:00,
2013-09-24 15:55:00,7.5,-7.2,29.26,North,0,0.0,0.0,50,0.00,,---,0.00,VWS V14.01,2013-09-24 19:55:00,
2013-09-24 16:00:00,7.2,-7.6,29.26,North,0,0.0,0.0,50,0.00,,---,0.00,VWS V14.01,2013-09-24 20:00:00,
2013-09-24 16:05:00,6.4,-8.2,29.26,North,0,0.0,0.0,50,0.00,,---,0.00,VWS V14.01,2013-09-24 20:05:00,
2013-09-24 16:10:00,6.1,-8.6,29.26,North,0,0.0,0.0,50,0.00,,---,0.00,VWS V14.01,2013-09-24 20:10:00,
2013-09-24 16:15:00,5.4,-9.2,29.26,North,0,0.0,0.0,50,0.00,,---,0.00,VWS V14.01,2013-09-24 20:15:00,
2013-09-24 16:20:00,5.0,-9.6,29.26,North,0,0.0,0.0,50,0.00,,---,0.00,VWS V14.01,2013-09-24 20:20:00,
2013-09-24 16:25:00,4.3,-10.2,29.26,North,0,0.0,0.0,50,0.00,,---,0.00,VWS V14.01,2013-09-24 20:25:00,
2013-09-24 16:30:00,3.9,-10.6,29.26,North,0,0.0,0.0,50,0.00,,---,0.00,VWS V14.01,2013-09-24 20:30:00,
2013-09-24 16:35:00,3.6,-10.9,29.26,North,0,0.0,0.0,50,0.00,,---,0.00,VWS V14.01,2013-09-24 20:35:00,
2013-09-24 16:40:00,3.2,-11.2,29.26,North,0,0.0,0.0,50,0.00,,---,0.00,VWS V14.01,2013-09-24 20:40:00,
2013-09-24 16:45:00,3.0,-11.4,29.26,North,0,0.0,0.0,50,0.00,,---,0.00,VWS V14.01,2013-09-24 20:45:00,
2013-09-24 16:50:00,2.8,-11.6,29.26,North,0,0.0,0.0,50,0.00,,---,0.00,VWS V14.01,2013-09-24 20:50:00,
2013-09-24 16:55:00,2.5,-11.9,29.26,North,0,0.0,0.0,50,0.00,,---,0.00,VWS V14.01,2013-09-24 20:55:00,
2013-09-24 17:00:00,2.1,-12.2,29.26,North,0,0.0,0.0,50,0.00,,---,0.00,VWS V14.01,2013-09-24 21:00:00,
2013-09-24 17:05:00,2.1,-12.2,29.26,North,0,0.0,0.0,50,0.00,,---,0.00,VWS V14.01,2013-09-24 21:05:00,
2013-09-24 17:10:00,2.1,-12.2,29.26,North,0,0.0,0.0,50,0.00,,---,0.00,VWS V14.01,2013-09-24 21:10:00,
2013-09-24 17:15:00,1.4,-12.9,29.26,North,0,0.0,0.0,50,0.00,,---,0.00,VWS V14.01,2013-09-24 21:15:00,
2013-09-24 17:20:00,1.4,-12.9,29.26,North,0,0.0,0.0,50,0.00,,---,0.00,VWS V14.01,2013-09-24 21:20:00,
2013-09-24 17:25:00,1.4,-12.9,29.26,North,0,0.0,0.0,50,0.00,,---,0.00,VWS V14.01,2013-09-24 21:25:00,
2013-09-24 17:30:00,1.6,-12.8,29.26,North,0,0.0,0.0,50,0.00,,---,0.00,VWS V14.01,2013-09-24 21:30:00,
2013-09-24 17:35:00,2.1,-12.2,29.26,North,0,0.0,0.0,50,0.00,,---,0.00,VWS V14.01,2013-09-24 21:35:00,
2013-09-24 17:41:00,2.5,-11.9,29.26,North,0,0.0,0.0,50,0.00,,---,0.00,VWS V14.01,2013-09-24 21:41:00,
2013-09-24 17:46:00,3.2,-11.2,29.26,North,0,0.0,0.0,50,0.00,,---,0.00,VWS V14.01,2013-09-24 21:46:00,
2013-09-24 17:52:00,4.1,-10.4,29.26,North,0,0.0,0.0,50,0.00,,---,0.00,VWS V14.01,2013-09-24 21:52:00,
2013-09-24 17:57:00,5.0,-9.6,29.26,North,0,0.0,0.0,50,0.00,,---,0.00,VWS V14.01,2013-09-24 21:57:00,
2013-09-24 18:03:00,5.0,-9.6,29.26,North,0,0.0,0.0,50,0.00,,---,0.00,VWS V14.01,2013-09-24 22:03:00,
2013-09-24 18:08:00,5.0,-9.6,29.26,North,0,0.0,0.0,50,0.00,,---,0.00,VWS V14.01,2013-09-24 22:08:00,
2013-09-24 18:13:00,6.4,-8.2,29.26,North,0,0.0,0.0,50,0.00,,---,0.00,VWS V14.01,2013-09-24 22:13:00,
2013-09-24 18:18:00,7.2,-7.6,29.26,North,0,0.0,0.0,50,0.00,,---,0.00,VWS V14.01,2013-09-24 22:18:00,
2013-09-24 18:24:00,7.9,-6.9,29.26,North,0,0.0,0.0,50,0.00,,---,0.00,VWS V14.01,2013-09-24 22:24:00,
2013-09-24 18:29:00,8.4,-6.4,29.26,North,0,0.0,0.0,50,0.00,,---,0.00,VWS V14.01,2013-09-24 22:29:00,
2013-09-24 18:34:00,8.4,-6.4,29.26,North,0,0.0,0.0,50,0.00,,---,0.00,VWS V14.01,2013-09-24 22:34:00,
2013-09-24 18:39:00,8.4,-6.4,29.26,North,0,0.0,0.0,50,0.00,,---,0.00,VWS V14.01,2013-09-24 22:39:00,
2013-09-24 18:44:00,8.4,-6.4,29.26,North,0,0.0,0.0,50,0.00,,---,0.00,VWS V14.01,2013-09-24 22:44:00,
2013-09-24 18:49:00,8.4,-6.4,29.26,North,0,0.0,0.0,50,0.00,,---,0.00,VWS V14.01,2013-09-24 22:49:00,
2013-09-24 18:54:00,8.4,-6.4,29.26,North,0,0.0,0.0,50,0.00,,---,0.00,VWS V14.01,2013-09-24 22:54:00,
2013-09-24 18:59:00,8.4,-6.4,29.26,North,0,0.0,0.0,50,0.00,,---,0.00,VWS V14.01,2013-09-24 22:59:00,
2013-09-24 19:04:00,8.4,-6.4,29.26,North,0,0.0,0.0,50,0.00,,---,0.00,VWS V14.01,2013-09-24 23:04:00,
2013-09-24 19:09:00,8.4,-6.4,29.26,North,0,0.0,0.0,50,0.00,,---,0.00,VWS V14.01,2013-09-24 23:09:00,
2013-09-24 19:14:00,8.4,-6.4,29.26,North,0,0.0,0.0,50,0.00,,---,0.00,VWS V14.01,2013-09-24 23:14:00,
2013-09-24 19:19:00,8.4,-6.4,29.26,North,0,0.0,0.0,50,0.00,,---,0.00,VWS V14.01,2013-09-24 23:19:00,
2013-09-24 19:24:00,12.6,-2.5,29.26,North,0,0.0,0.0,50,0.00,,---,0.00,VWS V14.01,2013-09-24 23:24:00,
2013-09-24 19:29:00,17.2,0.0,29.26,North,0,0.0,0.0,46,0.00,,---,0.00,VWS V14.01,2013-09-24 23:29:00,
2013-09-24 19:34:00,31.3,20.5,29.26,North,0,0.0,0.0,64,0.00,,---,0.00,VWS V14.01,2013-09-24 23:34:00,
2013-09-24 19:39:00,32.2,23.5,29.26,North,0,0.0,0.0,70,0.00,,---,0.00,VWS V14.01,2013-09-24 23:39:00,
2013-09-24 19:44:00,36.3,28.8,29.26,North,0,0.0,0.0,74,0.00,,---,0.00,VWS V14.01,2013-09-24 23:44:00,
2013-09-24 19:49:00,33.6,25.2,29.26,North,0,0.0,0.0,71,0.00,,---,0.00,VWS V14.01,2013-09-24 23:49:00,
2013-09-24 19:54:00,30.0,18.6,29.26,North,0,0.0,0.0,62,0.00,,---,0.00,VWS V14.01,2013-09-24 23:54:00,
2013-09-24 19:59:00,27.9,14.2,29.26,North,0,0.0,0.0,56,0.00,,---,0.00,VWS V14.01,2013-09-24 23:59:00,
2013-09-24 20:04:00,25.5,10.8,29.26,North,0,0.0,0.0,53,0.00,,---,0.00,VWS V14.01,2013-09-25 00:04:00,
2013-09-24 20:09:00,24.1,9.0,29.26,North,0,0.0,0.0,52,0.00,,---,0.00,VWS V14.01,2013-09-25 00:09:00,
2013-09-24 20:14:00,21.9,6.6,29.26,North,0,0.0,0.0,51,0.00,,---,0.00,VWS V14.01,2013-09-25 00:14:00,
2013-09-24 20:19:00,20.7,5.0,29.26,North,0,0.0,0.0,50,0.00,,---,0.00,VWS V14.01,2013-09-25 00:19:00,
2013-09-24 20:24:00,18.1,2.2,29.26,North,0,0.0,0.0,49,0.00,,---,0.00,VWS V14.01,2013-09-25 00:24:00,
2013-09-24 20:29:00,18.1,2.2,29.26,North,0,0.0,0.0,49,0.00,,---,0.00,VWS V14.01,2013-09-25 00:29:00,
2013-09-24 20:34:00,18.1,2.2,29.26,North,0,0.0,0.0,49,0.00,,---,0.00,VWS V14.01,2013-09-25 00:34:00,
2013-09-24 20:39:00,18.1,2.2,29.26,North,0,0.0,0.0,49,0.00,,---,0.00,VWS V14.01,2013-09-25 00:39:00,
2013-09-24 20:44:00,18.1,2.2,29.26,North,0,0.0,0.0,49,0.00,,---,0.00,VWS V14.01,2013-09-25 00:44:00,
2013-09-24 20:49:00,18.1,2.2,29.26,North,0,0.0,0.0,49,0.00,,---,0.00,VWS V14.01,2013-09-25 00:49:00,
2013-09-24 20:54:00,10.8,-5.1,29.26,North,0,0.0,0.0,48,0.00,,---,0.00,VWS V14.01,2013-09-25 00:54:00,
2013-09-24 20:59:00,10.2,-5.6,29.29,North,0,0.0,0.0,48,0.00,,---,0.00,VWS V14.01,2013-09-25 00:59:00,
2013-09-24 21:04:00,10.2,-5.6,29.29,North,0,0.0,0.0,48,0.00,,---,0.00,VWS V14.01,2013-09-25 01:04:00,
2013-09-24 21:09:00,10.2,-5.6,29.29,North,0,0.0,0.0,48,0.00,,---,0.00,VWS V14.01,2013-09-25 01:09:00,
2013-09-24 21:14:00,10.2,-5.6,29.29,North,0,0.0,0.0,48,0.00,,---,0.00,VWS V14.01,2013-09-25 01:14:00,
2013-09-24 21:19:00,10.2,-5.6,29.29,North,0,0.0,0.0,48,0.00,,---,0.00,VWS V14.01,2013-09-25 01:19:00,
2013-09-24 21:24:00,10.2,-5.6,29.29,North,0,0.0,0.0,48,0.00,,---,0.00,VWS V14.01,2013-09-25 01:24:00,
2013-09-24 21:29:00,10.2,-5.6,29.29,North,0,0.0,0.0,48,0.00,,---,0.00,VWS V14.01,2013-09-25 01:29:00,
2013-09-24 21:34:00,6.4,-9.1,29.29,North,0,0.0,0.0,48,0.00,,---,0.00,VWS V14.01,2013-09-25 01:34:00,
2013-09-24 21:39:00,6.4,-9.1,29.29,North,0,0.0,0.0,48,0.00,,---,0.00,VWS V14.01,2013-09-25 01:39:00,
2013-09-24 21:44:00,6.4,-9.1,29.29,North,0,0.0,0.0,48,0.00,,---,0.00,VWS V14.01,2013-09-25 01:44:00,
2013-09-24 21:49:00,6.4,-9.1,29.29,North,0,0.0,0.0,48,0.00,,---,0.00,VWS V14.01,2013-09-25 01:49:00,
2013-09-24 21:54:00,16.9,5.0,29.29,North,0,0.0,0.0,59,0.00,,---,0.00,VWS V14.01,2013-09-25 01:54:00,
2013-09-24 21:59:00,16.9,5.0,29.32,North,0,0.0,0.0,59,0.00,,---,0.00,VWS V14.01,2013-09-25 01:59:00,
2013-09-24 22:04:00,13.8,1.8,29.32,North,0,0.0,0.0,58,0.00,,---,0.00,VWS V14.01,2013-09-25 02:04:00,
2013-09-24 22:09:00,12.2,0.3,29.32,North,0,0.0,0.0,58,0.00,,---,0.00,VWS V14.01,2013-09-25 02:09:00,
2013-09-24 22:14:00,12.2,0.3,29.32,North,0,0.0,0.0,58,0.00,,---,0.00,VWS V14.01,2013-09-25 02:14:00,
2013-09-24 22:19:00,10.8,-1.1,29.32,North,0,0.0,0.0,58,0.00,,---,0.00,VWS V14.01,2013-09-25 02:19:00,
2013-09-24 22:24:00,10.0,-1.8,29.32,North,0,0.0,0.0,58,0.00,,---,0.00,VWS V14.01,2013-09-25 02:24:00,
2013-09-24 22:29:00,8.8,-3.0,29.32,North,0,0.0,0.0,58,0.00,,---,0.00,VWS V14.01,2013-09-25 02:29:00,
2013-09-24 22:34:00,8.2,-3.5,29.32,North,0,0.0,0.0,58,0.00,,---,0.00,VWS V14.01,2013-09-25 02:34:00,
2013-09-24 22:39:00,7.7,-4.0,29.32,North,0,0.0,0.0,58,0.00,,---,0.00,VWS V14.01,2013-09-25 02:39:00,
2013-09-24 22:44:00,7.2,-4.5,29.32,North,0,0.0,0.0,58,0.00,,---,0.00,VWS V14.01,2013-09-25 02:44:00,
2013-09-24 22:49:00,7.2,-4.5,29.32,North,0,0.0,0.0,58,0.00,,---,0.00,VWS V14.01,2013-09-25 02:49:00,
2013-09-24 22:54:00,7.2,-4.5,29.32,North,0,0.0,0.0,58,0.00,,---,0.00,VWS V14.01,2013-09-25 02:54:00,
2013-09-24 22:59:00,7.2,-4.5,29.32,North,0,0.0,0.0,58,0.00,,---,0.00,VWS V14.01,2013-09-25 02:59:00,
2013-09-24 23:04:00,5.5,-6.0,29.32,North,0,0.0,0.0,58,0.00,,---,0.00,VWS V14.01,2013-09-25 03:04:00,
2013-09-24 23:09:00,5.5,-6.0,29.32,North,0,0.0,0.0,58,0.00,,---,0.00,VWS V14.01,2013-09-25 03:09:00,
2013-09-24 23:14:00,4.6,-6.9,29.32,North,0,0.0,0.0,58,0.00,,---,0.00,VWS V14.01,2013-09-25 03:14:00,
2013-09-24 23:19:00,4.5,-7.0,29.32,North,0,0.0,0.0,58,0.00,,---,0.00,VWS V14.01,2013-09-25 03:19:00,
2013-09-24 23:25:00,4.5,-7.0,29.32,North,0,0.0,0.0,58,0.00,,---,0.00,VWS V14.01,2013-09-25 03:25:00,
2013-09-24 23:30:00,4.5,-7.0,29.32,North,0,0.0,0.0,58,0.00,,---,0.00,VWS V14.01,2013-09-25 03:30:00,
2013-09-24 23:35:00,3.2,-8.2,29.32,North,0,0.0,0.0,58,0.00,,---,0.00,VWS V14.01,2013-09-25 03:35:00,
2013-09-24 23:40:00,3.2,-8.2,29.32,North,0,0.0,0.0,58,0.00,,---,0.00,VWS V14.01,2013-09-25 03:40:00,
2013-09-24 23:45:00,3.2,-8.2,29.32,North,0,0.0,0.0,58,0.00,,---,0.00,VWS V14.01,2013-09-25 03:45:00,
2013-09-24 23:50:00,2.5,-8.9,29.32,North,0,0.0,0.0,58,0.00,,---,0.00,VWS V14.01,2013-09-25 03:50:00,
2013-09-24 23:55:00,2.5,-8.9,29.32,North,0,0.0,0.0,58,0.00,,---,0.00,VWS V14.01,2013-09-25 03:55:00,